Reidsville, NC

10:56 AM EDT on March 28, 2017 (GMT -0400)
Reidsville

Weather History for KSIF - October, 2012

Change the Weather History Date:

Friday, October 19, 2012

  Actual Average (KGSO) Record (KGSO)
Temperature  
Mean Temperature 58 °F -  
Max Temperature 71 °F 67 °F 88 °F (2016)
Min Temperature 44 °F 44 °F 28 °F (1948)
Degree Days  
Heating Degree Days 8    
Growing Degree Days 8 (Base 50)    
Moisture  
Dew Point 50 °F    
Average Humidity 79    
Maximum Humidity 100    
Minimum Humidity 30    
Precipitation  
Precipitation 0.01 in - - ()
Sea Level Pressure  
Sea Level Pressure 29.75 in    
Wind  
Wind Speed 2 mph (SW)    
Max Wind Speed 13 mph    
Max Gust Speed 18 mph    
Visibility 7 miles    
Events Fog    
Averages and records for this station are not official NWS values.
T = Trace of Precipitation, MM = Missing Value Source: NWS Daily Summary

Daily Weather History Graph

Daily Weather History Graph

Search for Another Location

Airport or City:

Trip Planner

Search our weather history database for the weather conditions in past years. The results will help you decide how hot, cold, wet, or windy it might be!

Date:

Astronomy

Oct. 19, 2012 Rise Set
Actual Time 7:30 AM EDT 6:37 PM EDT
Civil Twilight 7:04 AM EDT 7:03 PM EDT
Nautical Twilight 6:34 AM EDT 7:33 PM EDT
Astronomical Twilight 6:04 AM EDT 8:03 PM EDT
Moon 12:06 PM EDT (10/19) 10:19 PM EDT (10/19)
Length of Visible Light 11h 58m
Length of Day
11h 06m
Waxing Crescent, 23% of the Moon is Illuminated
Oct 19
Waxing Crescent
Oct 21
First Quarter
Oct 29
Full
Nov 6
Last Quarter
Nov 13
New

Hourly Weather History & Observations

Time (EDT) Temp. Dew Point Humidity Pressure Visibility Wind Dir Wind Speed Gust Speed Precip Events Conditions
2:15 AM 59.2 °F 59.2 °F 100% 29.77 in 5.0 mi Calm Calm - N/A   Scattered Clouds
2:35 AM 59.5 °F 59.5 °F 100% 29.76 in 3.0 mi Calm Calm - N/A   Scattered Clouds
2:55 AM 58.3 °F 58.3 °F 100% 29.76 in 0.5 mi Calm Calm - N/A Fog Fog
3:15 AM 57.4 °F 57.4 °F 100% 29.75 in 0.5 mi Calm Calm - N/A Fog Fog
3:35 AM 58.1 °F 58.1 °F 100% 29.75 in 0.5 mi Calm Calm - N/A Fog Fog
3:55 AM 58.3 °F 58.3 °F 100% 29.75 in 3.0 mi Calm Calm - 0.01 in   Scattered Clouds
4:15 AM 57.7 °F 57.7 °F 100% 29.75 in 2.0 mi Calm Calm - N/A   Clear
4:35 AM 57.0 °F 57.0 °F 100% 29.75 in 1.0 mi Calm Calm - N/A   Mostly Cloudy
4:55 AM 57.9 °F 57.9 °F 100% 29.75 in 4.0 mi Calm Calm - N/A   Overcast
5:15 AM 59.2 °F 59.2 °F 100% 29.76 in 4.0 mi Calm Calm - N/A   Overcast
5:35 AM 59.2 °F 59.2 °F 100% 29.77 in 1.8 mi West 3.5 mph - N/A   Overcast
5:55 AM 58.3 °F 58.3 °F 100% 29.77 in 3.0 mi Calm Calm - N/A   Scattered Clouds
6:15 AM 56.3 °F 56.3 °F 100% 29.77 in 0.2 mi Calm Calm - N/A Fog Fog
6:35 AM 55.9 °F 55.9 °F 100% 29.78 in 0.2 mi Calm Calm - N/A Fog Fog
6:55 AM 56.3 °F 56.3 °F 100% 29.78 in 0.2 mi Calm Calm - N/A Fog Fog
7:15 AM 56.5 °F 56.5 °F 100% 29.78 in 0.2 mi Calm Calm - N/A Fog Fog
7:35 AM 56.3 °F 56.3 °F 100% 29.78 in 0.2 mi Calm Calm - N/A Fog Fog
7:55 AM 55.8 °F 55.8 °F 100% 29.78 in 0.2 mi Calm Calm - N/A Fog Fog
8:15 AM 55.4 °F 55.4 °F 100% 29.78 in 0.2 mi Calm Calm - N/A Fog Fog
8:35 AM 55.4 °F 55.4 °F 100% 29.78 in 0.2 mi Calm Calm - N/A Fog Fog
8:55 AM 55.6 °F 55.6 °F 100% 29.79 in 0.2 mi Calm Calm - N/A Fog Fog
9:15 AM 55.9 °F 55.9 °F 100% 29.79 in 0.2 mi Calm Calm - N/A Fog Fog
9:35 AM 56.5 °F 56.5 °F 100% 29.78 in 0.2 mi Calm Calm - N/A Fog Fog
9:55 AM 56.8 °F 56.8 °F 100% 29.79 in 1.0 mi Calm Calm - N/A   Overcast
10:15 AM 57.7 °F 57.7 °F 100% 29.79 in 5.0 mi Calm Calm - N/A   Mostly Cloudy
10:35 AM 58.1 °F 58.1 °F 100% 29.78 in 10.0 mi Calm Calm - N/A   Scattered Clouds
10:55 AM 58.5 °F 58.5 °F 100% 29.78 in 10.0 mi Calm Calm - N/A   Clear
11:15 AM 58.1 °F 57.9 °F 99% 29.78 in 10.0 mi Calm Calm - N/A   Clear
11:35 AM 58.1 °F 57.4 °F 97% 29.78 in 10.0 mi Calm Calm - N/A   Clear
11:55 AM 64.4 °F 52.7 °F 66% 29.78 in 10.0 mi WSW 3.5 mph - N/A   Clear
12:15 PM 67.1 °F 48.9 °F 52% 29.77 in 10.0 mi WSW 3.5 mph - N/A   Clear
12:35 PM 67.6 °F 45.3 °F 45% 29.77 in 10.0 mi West 4.6 mph - N/A   Clear
12:55 PM 68.7 °F 43.7 °F 40% 29.76 in 10.0 mi SW 3.5 mph - N/A   Clear
1:15 PM 68.9 °F 46.8 °F 45% 29.75 in 10.0 mi South 8.1 mph - N/A   Clear
1:35 PM 69.3 °F 47.1 °F 45% 29.74 in 10.0 mi WSW 5.8 mph - N/A   Clear
1:55 PM 69.8 °F 46.8 °F 44% 29.73 in 10.0 mi WSW 5.8 mph - N/A   Clear
2:15 PM 70.2 °F 46.6 °F 43% 29.73 in 10.0 mi SSW 9.2 mph - N/A   Clear
2:35 PM 71.1 °F 45.1 °F 39% 29.72 in 10.0 mi WSW 5.8 mph - N/A   Clear
2:55 PM 71.1 °F 41.4 °F 34% 29.71 in 10.0 mi SSW 12.7 mph 18.4 mph N/A   Clear
3:15 PM 71.1 °F 39.0 °F 31% 29.71 in 10.0 mi SW 10.4 mph 18.4 mph N/A   Clear
3:35 PM 70.9 °F 37.6 °F 30% 29.70 in 10.0 mi SW 11.5 mph 16.1 mph N/A   Clear
3:55 PM 70.7 °F 39.6 °F 32% 29.70 in 10.0 mi SW 9.2 mph - N/A   Clear
4:15 PM 70.7 °F 40.6 °F 34% 29.70 in 10.0 mi WSW 10.4 mph - N/A   Clear
4:35 PM 70.3 °F 42.1 °F 36% 29.69 in 10.0 mi SW 6.9 mph - N/A   Clear
4:55 PM 70.0 °F 44.2 °F 40% 29.69 in 10.0 mi SW 10.4 mph - N/A   Clear
5:15 PM 69.8 °F 41.4 °F 36% 29.69 in 10.0 mi SW 9.2 mph - N/A   Clear
5:35 PM 68.7 °F 39.0 °F 34% 29.69 in 10.0 mi SW 8.1 mph - N/A   Clear
5:55 PM 67.3 °F 39.4 °F 36% 29.70 in 10.0 mi SW 6.9 mph - N/A   Clear
6:15 PM 65.8 °F 39.2 °F 38% 29.70 in 10.0 mi SW 3.5 mph - N/A   Clear
6:35 PM 62.6 °F 42.4 °F 48% 29.70 in 10.0 mi Calm Calm - N/A   Clear
6:55 PM 56.5 °F 46.6 °F 69% 29.71 in 10.0 mi Calm Calm - N/A   Clear
7:15 PM 54.0 °F 46.9 °F 77% 29.72 in 10.0 mi Calm Calm - N/A   Clear
7:35 PM 50.9 °F 47.1 °F 87% 29.72 in 10.0 mi Calm Calm - N/A   Clear
7:55 PM 50.2 °F 46.8 °F 88% 29.73 in 10.0 mi Calm Calm - N/A   Clear
8:15 PM 49.8 °F 46.4 °F 88% 29.74 in 10.0 mi Calm Calm - N/A   Clear
8:35 PM 49.3 °F 46.0 °F 89% 29.74 in 10.0 mi Calm Calm - N/A   Clear
8:55 PM 47.3 °F 45.3 °F 93% 29.75 in 10.0 mi Calm Calm - N/A   Clear
9:15 PM 46.9 °F 45.5 °F 95% 29.75 in 10.0 mi Calm Calm - N/A   Clear
9:35 PM 45.9 °F 44.8 °F 96% 29.76 in 10.0 mi Calm Calm - N/A   Clear
9:55 PM 45.9 °F 44.6 °F 95% 29.76 in 10.0 mi Calm Calm - N/A   Clear
10:15 PM 45.0 °F 43.9 °F 96% 29.76 in 10.0 mi Calm Calm - N/A   Clear
10:35 PM 45.0 °F 44.1 °F 97% 29.76 in 10.0 mi Calm Calm - N/A   Clear
10:55 PM 44.8 °F 44.2 °F 98% 29.77 in 10.0 mi Calm Calm - N/A   Clear
11:35 PM 44.6 °F 44.1 °F 98% 29.77 in 10.0 mi Calm Calm - N/A   Clear
11:55 PM 44.4 °F 43.5 °F 97% 29.78 in 10.0 mi Calm Calm - N/A   Clear